Satellite: GO-32
Catalog number: 25397
Epoch time:      08276.82080076
Element set:     711
Inclination:      098.3548 deg
RA of node:       306.6208 deg
Eccentricity:    0.0000567
Arg of perigee:   328.1476 deg
Mean anomaly:     031.9657 deg
Mean motion:   14.23148798 rev/day
Decay rate:       -3.2e-07 rev/day^2
Epoch rev:           53152
Checksum:              316

Satellite: NO-44
Catalog number: 26931
Epoch time:      08276.82023626
Element set:     991
Inclination:      067.0552 deg
RA of node:       007.3778 deg
Eccentricity:    0.0007229
Arg of perigee:   261.9660 deg
Mean anomaly:     098.0623 deg
Mean motion:   14.29534898 rev/day
Decay rate:        8.9e-07 rev/day^2
Epoch rev:           36579
Checksum:              346

Satellite: SO-50
Catalog number: 27607
Epoch time:      08276.59873398
Element set:     712
Inclination:      064.5576 deg
RA of node:       087.4233 deg
Eccentricity:    0.0085777
Arg of perigee:   258.7138 deg
Mean anomaly:     100.4292 deg
Mean motion:   14.71382024 rev/day
Decay rate:      -1.67e-06 rev/day^2
Epoch rev:           31077
Checksum:              333

Satellite: CO-55
Catalog number: 27844
Epoch time:      08276.56522489
Element set:     408
Inclination:      098.7184 deg
RA of node:       283.3539 deg
Eccentricity:    0.0010069
Arg of perigee:   161.4003 deg
Mean anomaly:     198.7549 deg
Mean motion:   14.20598663 rev/day
Decay rate:        3.2e-07 rev/day^2
Epoch rev:           27268
Checksum:              340

Satellite: CO-57
Catalog number: 27848
Epoch time:      08276.50734315
Element set:     359
Inclination:      098.7186 deg
RA of node:       282.3745 deg
Eccentricity:    0.0009621
Arg of perigee:   166.2831 deg
Mean anomaly:     193.8605 deg
Mean motion:   14.20406343 rev/day
Decay rate:        1.0e-07 rev/day^2
Epoch rev:           27264
Checksum:              316

Satellite: AO-51
Catalog number: 28375
Epoch time:      08276.56568593
Element set:     212
Inclination:      098.0666 deg
RA of node:       295.0756 deg
Eccentricity:    0.0083217
Arg of perigee:   186.5216 deg
Mean anomaly:     173.4903 deg
Mean motion:   14.40619476 rev/day
Decay rate:       -1.0e-08 rev/day^2
Epoch rev:           22386
Checksum:              329

Satellite: CO-56
Catalog number: 28941
Epoch time:      08276.62158868
Element set:     427
Inclination:      098.1184 deg
RA of node:       042.4913 deg
Eccentricity:    0.0149535
Arg of perigee:   009.7122 deg
Mean anomaly:     350.7185 deg
Mean motion:   15.62037867 rev/day
Decay rate:     2.8127e-04 rev/day^2
Epoch rev:           14678
Checksum:              345

Satellite: CP3
Catalog number: 31128
Epoch time:      08275.87449748
Element set:    0447
Inclination:      098.0301 deg
RA of node:       334.7422 deg
Eccentricity:    0.0102803
Arg of perigee:   005.7781 deg
Mean anomaly:     354.4564 deg
Mean motion:   14.51977646 rev/day
Decay rate:       -4.7e-07 rev/day^2
Epoch rev:           07741
Checksum:              316

Satellite: CP4
Catalog number: 31132
Epoch time:      08275.74309537
Element set:    0428
Inclination:      098.0318 deg
RA of node:       337.2981 deg
Eccentricity:    0.0085269
Arg of perigee:   358.5163 deg
Mean anomaly:     001.5766 deg
Mean motion:   14.55145109 rev/day
Decay rate:       1.12e-06 rev/day^2
Epoch rev:           07744
Checksum:              306

Satellite: CO-65
Catalog number: 32785
Epoch time:      08276.78716700
Element set:     173
Inclination:      097.9834 deg
RA of node:       336.3824 deg
Eccentricity:    0.0015748
Arg of perigee:   143.1898 deg
Mean anomaly:     217.0389 deg
Mean motion:   14.81395759 rev/day
Decay rate:       -8.6e-07 rev/day^2
Epoch rev:            2333
Checksum:              353

/EX
SB KEPS @ AMSAT  $ORB08276.W
Orbital Elements  08276.WEATHER

HR AMSAT ORBITAL ELEMENTS FOR WEATHER SATELLITES
FROM WA5QGD FORT WORTH,TX October 2, 2008
Send Subscribe/unsubscribe to KEPS at 
http://www.amsat.org/mailman/listinfo/keps
BID: ORB08276.W
TO ALL RADIO AMATEURS BT

Satellite: NOAA-10
Catalog number: 16969
Epoch time:      08276.19561953
Element set:     311
Inclination:      098.7174 deg
RA of node:       297.9297 deg
Eccentricity:    0.0011642
Arg of perigee:   227.1527 deg
Mean anomaly:     132.8675 deg
Mean motion:   14.27368647 rev/day
Decay rate:      -1.21e-06 rev/day^2
Epoch rev:           14670
Checksum:              333

Satellite: NOAA-11
Catalog number: 19531
Epoch time:      08275.87990022
Element set:     342
Inclination:      098.7970 deg
RA of node:       003.7047 deg
Eccentricity:    0.0012080
Arg of perigee:   121.8378 deg
Mean anomaly:     238.3992 deg
Mean motion:   14.14878471 rev/day
Decay rate:        9.4e-07 rev/day^2
Epoch rev:            3299
Checksum:              319

Satellite: NOAA-12
Catalog number: 21263
Epoch time:      08275.95855501
Element set:    0877
Inclination:      098.7725 deg
RA of node:       277.9268 deg
Eccentricity:    0.0012249
Arg of perigee:   171.3051 deg
Mean anomaly:     188.8342 deg
Mean motion:   14.25548051 rev/day
Decay rate:        3.1e-07 rev/day^2
Epoch rev:           90360
Checksum:              316

